This is the latest recevied weather packets stored in our database for station/object IT9CNT. If no packets are shown the sender has not sent any weather packets the latest 10 day(s).
| Time | Temp. | Humidity | Pressure | Rain* | Wind** | Luminosity | Snow |
|---|---|---|---|---|---|---|---|
| 1778333463 | 22.78° C | 83% | 1012.6 hPa | 0 mm | - | - | - |
| 1778333403 | 22.78° C | 82% | 1012.8 hPa | 0 mm | - | - | - |
| 1778333343 | 22.78° C | 83% | 1012.6 hPa | 0 mm | - | - | - |
| 1778333283 | 22.78° C | 83% | 1012.7 hPa | 0 mm | - | - | - |
| 1778333223 | 22.22° C | 83% | 1012.7 hPa | 0 mm | - | - | - |
| 1778333163 | 22.78° C | 83% | 1012.6 hPa | 0 mm | - | - | - |
| 1778333103 | 22.78° C | 83% | 1012.7 hPa | 0 mm | - | - | - |
| 1778333043 | 22.78° C | 83% | 1012.4 hPa | 0 mm | - | - | - |
| 1778332983 | 22.22° C | 83% | 1012.4 hPa | 0 mm | - | - | - |
| 1778332923 | 22.78° C | 83% | 1012.6 hPa | 0 mm | - | - | - |
| 1778332863 | 22.78° C | 83% | 1012.5 hPa | 0 mm | - | - | - |
| 1778332803 | 23.33° C | 83% | 1012.7 hPa | 0 mm | - | - | - |
| 1778332743 | 22.78° C | 83% | 1012.5 hPa | 0 mm | - | - | - |
| 1778332683 | 22.78° C | 82% | 1012.5 hPa | 0 mm | - | - | - |
| 1778332623 | 23.33° C | 82% | 1012.5 hPa | 0 mm | - | - | - |
| 1778332563 | 23.33° C | 81% | 1012.5 hPa | 0 mm | - | - | - |
| 1778332503 | 23.33° C | 81% | 1012.7 hPa | 0 mm | - | - | - |
| 1778332443 | 22.78° C | 81% | 1012.7 hPa | 0 mm | - | - | - |
| 1778332383 | 22.78° C | 81% | 1012.8 hPa | 0 mm | - | - | - |
| 1778332323 | 22.78° C | 81% | 1012.6 hPa | 0 mm | - | - | - |
| 1778332263 | 22.78° C | 80% | 1012.6 hPa | 0 mm | - | - | - |
| 1778332203 | 23.33° C | 81% | 1012.5 hPa | 0 mm | - | - | - |
| 1778332143 | 22.22° C | 81% | 1012.5 hPa | 0 mm | - | - | - |
| 1778332083 | 22.22° C | 81% | 1012.5 hPa | 0 mm | - | - | - |
| 1778332023 | 22.22° C | 81% | 1012.6 hPa | 0 mm | - | - | - |
* Rain latest hour (hover to see other rain measurements)
** Current wind speed in m/s (hover to see current wind gust speed)